sat.trackr.live / text

‹ back to catalog

STARLINK-35685

NORAD 67128 · 2025-299AC

PAYLOAD ACTIVE UNKNOWN

§ Identity

Operator
Country
US
Launch date
2025-12-15
Launch site
AFETR
Launch vehicle
Mass (kg)
RCS (m²)

Purposes: comms

External: N2YO · Heavens-Above · Gunter

§ Orbital elements

Epoch: 2026-09-20T02:41:07.279584Z

Period
94.27 min
Inclination
42.9989°
Eccentricity
0.0001472
Mean motion
15.27601543 rev/d
Perigee alt
482.0 km
Apogee alt
484.0 km
Semi-major
6,861.1 km
B*
5.9186e-4
RAAN
150.7334°
Arg perigee
272.1449°
Mean anomaly
87.9234°
Rev number
4,285

§ Raw data

STARLINK-356851 67128U 25299AC  26263.11188981  .00016071  00000+0  59186-3 0  99932 67128  42.9989 150.7334 0001472 272.1449  87.9234 15.27601543 42859

JSON: /api/v1/satellites/67128 · /tle

For live sub-satellite position, see the globe view (requires WebGL).

§ Visibility from observer

Set your observer location to see the next 7 days of passes ≥ 10°. The values pass through the URL so the page stays shareable.

No JS? Fill the form by hand. The geolocation button needs JavaScript.